Retour au catalogue

STARLINK-37076

ActifCommunicationsVLEO
NORAD 68173·PAYLOAD·🇺🇸 United States

Lancé Mar 14, 2026 depuis Vandenberg Space Force Base

Loading…

Prochains Passages (prochaines 24 heures)

TLE

FraisSource: CelesTrak SupGP

Époque: Sep 14, 2026, 21:34 UTC

1 68173C 26050G   26257.89909722 -.00025685  00000+0 -75902-3 0  2576
2 68173  53.1583 104.2034 0001270  83.2321 287.4069 15.34396596    13

Suivez STARLINK-37076 en temps réel avec AllMySat

Download on the App Store